User: anonymous   Login
Location: B
(0.0000°N, 0.0000°E)
Time: 19:10:04
(UTC+01:00)
Language:

Cosmos 1025 Rocket - Orbit

View from above orbital plane
View from above orbital plane
View from above satellite
View from above satellite

Ground track
Ground track

The orbit data is extracted from the following two-line orbital elements,

1 10974U 78067B   17021.22126743  .00000084  00000-0  65193-5 0  9998
2 10974  82.4842 308.3813 0018902 108.7803 251.5467 14.87208319 85718
Epoch (UTC): 21 January 2017 05:18:37
Eccentricity: 0.0018902
inclination: 82.4842°
perigee height: 593 km
apogee height: 620 km
right ascension of ascending node: 308.3813°
argument of perigee: 108.7803°
revolutions per day: 14.87208319
mean anomaly at epoch: 251.5467°
orbit number at epoch: 8571

The dashed part of the orbit path shows where the satellite is in the earth's shadow,  

DLR